Home   Weather   Canvey Island   Past weeks

Flag for United Kingdom Past Weather in Canvey Island, England, United Kingdom — Yesterday and Last 2 Weeks

Now
36 °F

Passing clouds.


Feels Like: 31 °F
Forecast: 33 / 50 °F
Wind: 6 mph from Northwest

Location: Southend Airport-On-Sea

Current Time: Apr 26, 2017 at 1:39:41 am

Latest Report: Apr 26, 2017 at 1:20 am


Visibility: N/A

Pressure: 29.98 "Hg

Humidity: 81%

Dew Point: 30 °F

Location of Canvey IslandLocation

Past Weather in Canvey Island — Graph

°F

Canvey Island Temperature Yesterday

Maximum temperature yesterday: 52 °F (at 4:20 pm)
Minimum temperature yesterday: 34 °F (at 5:20 am)
Average temperature yesterday: 43 °F

High & Low Weather Summary for the Past Weeks

 TemperatureHumidityPressure
High63 °F (Apr 14, 6:20 pm)100% (Apr 21, 1:50 am)30.63 "Hg (Apr 21, 1:50 am)
Low32 °F (Apr 20, 2:50 am)30% (Apr 25, 1:50 pm)29.86 "Hg (Apr 24, 4:50 pm)
Average50 °F62%30.23 "Hg
* Reported Apr 11 1:20 am — Apr 26 12:20 am, Canvey Island, Weather by CustomWeather, © 2017

Note: Actual official high and low records may vary slightly from our data, if they occured in-between our weather recording intervals... More about our weather records

Advertising

Canvey Island Weather History for the Previous 24 Hours

Scroll right to see more
 ConditionsComfort  
Time TempWeatherWind HumidityBarometerVisibility
12:20 am
Wed, Apr 26
36 °FClear.8 mph87%29.95 "Hg10 mi
11:50 pm
Tue, Apr 25
36 °FClear.8 mph87%29.95 "Hg10 mi
11:20 pm36 °FClear.8 mph87%29.95 "Hg10 mi
10:50 pm37 °FClear.8 mph81%29.95 "Hg10 mi
10:20 pm39 °FClear.9 mph75%29.95 "Hg10 mi
9:50 pm39 °FPassing clouds.8 mph70%29.95 "HgN/A
9:20 pm39 °FPassing clouds.8 mph70%29.95 "HgN/A
8:50 pm39 °FPassing clouds.8 mph70%29.92 "HgN/A
8:20 pm41 °FPassing clouds.8 mph66%29.92 "HgN/A
7:50 pm41 °FScattered showers. Passing clouds.9 mph66%29.92 "HgN/A
7:20 pm43 °FPassing clouds.9 mph61%29.92 "HgN/A
6:50 pm46 °FPassing clouds.16 mph53%29.92 "HgN/A
6:20 pm46 °FScattered showers. Clear.16 mph53%29.89 "HgN/A
5:50 pm48 °FPassing clouds.10 mph37%29.89 "HgN/A
5:20 pm50 °FPassing clouds.14 mph32%29.89 "HgN/A
4:50 pm52 °FPassing clouds.10 mph32%29.89 "HgN/A
4:20 pm52 °FPassing clouds.9 mph32%29.89 "HgN/A
3:50 pm50 °FPassing clouds.13 mph32%29.89 "HgN/A
3:20 pm50 °FPassing clouds.10 mph30%29.92 "HgN/A
2:50 pm50 °FPassing clouds.10 mph30%29.92 "HgN/A
2:20 pm50 °FPassing clouds.12 mph30%29.92 "HgN/A
1:50 pm50 °FPassing clouds.9 mph30%29.92 "HgN/A
1:20 pm50 °FPassing clouds.10 mph32%29.92 "HgN/A
12:50 pm46 °FPassing clouds.8 mph34%29.92 "HgN/A
12:20 pm46 °FPartly sunny.12 mph40%29.92 "HgN/A
11:50 am48 °FPartly sunny.10 mph43%29.92 "HgN/A
11:20 am48 °FScattered clouds.10 mph46%29.92 "HgN/A
10:50 am46 °FScattered clouds.10 mph50%29.92 "HgN/A
10:20 am45 °FPassing clouds.10 mph53%29.92 "HgN/A
9:50 am45 °FPassing clouds.12 mph53%29.92 "HgN/A
9:20 am43 °FPassing clouds.10 mph57%29.92 "HgN/A
8:50 am43 °FPassing clouds.12 mph57%29.92 "HgN/A
8:20 am39 °FSunny.12 mph61%29.92 "Hg10 mi
7:50 am39 °FSunny.10 mph61%29.92 "Hg10 mi
7:20 am36 °FSunny.9 mph65%29.89 "Hg10 mi
6:50 am36 °FSunny.9 mph70%29.89 "Hg10 mi
6:20 am34 °FSunny.9 mph70%29.89 "Hg10 mi
5:50 am34 °FPassing clouds.8 mph70%29.89 "HgN/A
5:20 am34 °FPassing clouds.8 mph70%29.89 "HgN/A
1:20 am39 °FClear.12 mph56%29.86 "Hg10 mi
Weather by CustomWeather, © 2017

See weather overviewHow to use our weather pages